STARLINK-1714, 46562

Orbit data source: Space-Track

STARLINK-1714, 46562 is a payload satellite owned by SpaceX/Seattle (US) in LEO that was launched on Tue, 06 Oct 2020 UTC via an FALCON 9 launch vehicle from the Air Force Eastern Test Range (AFETR). Payload-class satellites include a variety of spacecraft equipped with specific instruments for various scientific and technological missions. These include communications satellites like Starlink; space stations such as the ISS; scientific satellites like the Hubble; Earth observation satellites from companies like Planet Labs, Umbra, and HawkEye 360; GPS; miniature CubeSats for education and research; and military/defense satellites.

Loading next visibility...
Identifier
46562, 2020-070AG
Orbit
LEO
Country
Flag of USUS
Related business
Manufacturer
SpaceX/Seattle
Mission
Partially operational Commercial Communications
Bus & Motor
STARLINK, Unknown motor
Mass
260 kg wet, ~248 kg dry
Launch date (UTC)
2020-10-06 (5 years ago)
Launch vehicle
FALCON 9
Launch site
Air Force Eastern Test Range (AFETR)
Object type
Payload
Rocket body
Debris
Shape & HBR
Box + 1 Pan, 10.1 m
Radar Cross Section
13.562 m², Large (>1 m²)

Expand to show TLE details & history
Last TLE update: 10 hours ago

TLE from 10 hours ago
0 STARLINK-1714
1 46562U 20070AG  26073.43454176  .00101627  00000-0  16620-2 0  9998
2 46562  53.0452  93.4038 0001362 276.2522  83.8331 15.51739501301095
Epoch: 2026-03-14T10:25Z
TLE epoch observation values (Epoch: 2026-03-14T10:25:44.408Z)
Latitude
-0.00004°
Longitude
124.91297°
Altitude
412.444 km
Speed
7.665 km/s
True Right ascension
06h 13m 36s
True Declination
0° 00' 00"
Sunlit
Object was in daylight at epoch
Visualization orbit readout
Latitude
Unknown
Longitude
Unknown
Altitude
Unknown
Speed
Unknown
Apparent Right ascension
Unknown
Apparent Declination
Unknown
Sunlit
N/A
Visualization observer readout
Local Sidereal Time
00:27:52
Azimuth
Unknown
Elevation
Unknown
Doppler factor
Unknown
Orbital elements
Apogee altitude
412.849 km
Perigee altitude
411 km
Semi-major axis
6,790.062 km
Eccentricity
0.00014
Inclination
53.0452°
RAAN
93.4038°
Arg. of periapsis
276.2522°
True anomaly
83.84862°
Mean anomaly
83.8331°
Eccentric anomaly
83.84086°
Mean motion
3.87911 °/min
Orbital period
92.8 mins
BSTAR
0.001662
Loading maneuver chart data...
Computing Atmospheric mass density...
Loading historical data...
Loading historical data...
Loading historical data...
Loading historical data...
Loading historical data...
Loading historical data...
Loading historical data...

Documentation

Showing up to 5 results
|